{"data":{"norad_id":53292,"intl_designator":"2022-086BC","name":"STARLINK-4159","alt_names":[],"object_type":"PAYLOAD","status":"ACTIVE","operator":null,"country":"US","launch_date":"2022-07-24","launch_site_code":"AFETR","launch_vehicle":null,"mission":null,"orbit_class":"UNKNOWN","rcs_meters":null,"size_class":null,"mass_kg":null,"dimensions":null,"purposes":["comms"],"wikipedia_slug":null,"has_3d_model":false,"image_url":null,"decayed_at":null,"tle_current":{"epoch":"2026-09-19T22:23:42.374976Z","epoch_age_seconds":124330,"freshness":"FRESH","line1":"1 53292U 22086BC  26262.93312934  .00001882  00000+0  66820-4 0  9995","line2":"2 53292  53.1622  16.0523 0001072  76.7890 283.3232 15.34394169230739","mean_motion":15.34394169,"eccentricity":0.0001072,"inclination_deg":53.1622,"raan_deg":16.0523,"arg_perigee_deg":76.789,"mean_anomaly_deg":283.3232,"bstar":6.682e-5,"rev_number":23073,"period_min":93.848114721296,"perigee_km":461.98723129118,"apogee_km":463.45391115445,"semimajor_km":6840.8575712228,"source":"CELESTRAK","updated_at":"2026-09-20T09:00:40.222067Z"}}}